STARLINK-32376, 61707

Orbit data source: Space-Track

STARLINK-32376, 61707 is a payload satellite owned by SpaceX/Seattle (US) in LEO that was launched on Wed, 30 Oct 2024 UTC via an FALCON 9 launch vehicle from the Air Force Eastern Test Range (AFETR). Payload-class satellites include a variety of spacecraft equipped with specific instruments for various scientific and technological missions. These include communications satellites like Starlink; space stations such as the ISS; scientific satellites like the Hubble; Earth observation satellites from companies like Planet Labs, Umbra, and HawkEye 360; GPS; miniature CubeSats for education and research; and military/defense satellites.

Loading next visibility...
Identifier
61707, 2024-196A
Orbit
LEO
Country
Flag of USUS
Related business
Manufacturer
SpaceX/Seattle
Mission
Operational Commercial Communications
Bus & Motor
STARLINK V2M, Unknown motor
Mass
730 kg wet, ~700 kg dry
Launch date (UTC)
2024-10-30 (1 year ago)
Launch vehicle
FALCON 9
Launch site
Air Force Eastern Test Range (AFETR)
Object type
Payload
Rocket body
Debris
Shape & HBR
Box + 2 Pan, 17.7 m
Radar Cross Section
33.884 m², Large (>1 m²)

Expand to show TLE details & history
Last TLE update: 1 day ago

TLE from 1 day ago
0 STARLINK-32376
1 61707U 24196A   25348.79628506  .00002353  00000-0  91605-4 0  9996
2 61707  53.1598 135.3385 0000935  83.9173 276.1934 15.30179101 64178
Epoch: 2025-12-14T19:06Z
TLE epoch observation values (Epoch: 2025-12-14T19:06:39.029Z)
Latitude
-0.00003°
Longitude
124.9718°
Altitude
476.108 km
Speed
7.629 km/s
True Right ascension
09h 01m 21s
True Declination
0° 00' 00"
Sunlit
Object was in full shadow at epoch
Visualization orbit readout
Latitude
Unknown
Longitude
Unknown
Altitude
Unknown
Speed
Unknown
Apparent Right ascension
Unknown
Apparent Declination
Unknown
Sunlit
N/A
Visualization observer readout
Local Sidereal Time
22:04:56
Azimuth
Unknown
Elevation
Unknown
Doppler factor
Unknown
Orbital elements
Apogee altitude
476.175 km
Perigee altitude
474.893 km
Semi-major axis
6,853.671 km
Eccentricity
0.00009
Inclination
53.1598°
RAAN
135.3385°
Arg. of periapsis
83.9173°
True anomaly
276.18275°
Mean anomaly
276.1934°
Eccentric anomaly
276.18807°
Mean motion
3.82524 °/min
Orbital period
94.11 mins
BSTAR
0.000091605
Loading maneuver chart data...
Computing Atmospheric mass density...
Loading historical data...
Loading historical data...
Loading historical data...
Loading historical data...
Loading historical data...
Loading historical data...
Loading historical data...

Documentation

Showing up to 5 results
|